TimeCST,TemperatureF,Dew PointF,Humidity,Sea Level PressureIn,VisibilityMPH,Wind Direction,Wind SpeedMPH,Gust SpeedMPH,PrecipitationIn,Events,Conditions,WindDirDegrees,DateUTC
12:14 AM,33.8,32.0,93,30.24,10.0,Calm,Calm,-,N/A,,Overcast,0,2012-11-05 06:14:00
12:35 AM,33.8,32.0,93,30.24,10.0,Calm,Calm,-,N/A,,Overcast,0,2012-11-05 06:35:00
12:54 AM,33.8,32.0,93,30.24,7.0,Calm,Calm,-,N/A,,Overcast,0,2012-11-05 06:54:00
1:14 AM,33.8,32.0,93,30.24,10.0,Calm,Calm,-,N/A,,Overcast,0,2012-11-05 07:14:00
1:35 AM,33.8,32.0,93,30.23,7.0,Calm,Calm,-,N/A,,Overcast,0,2012-11-05 07:35:00
1:54 AM,33.8,32.0,93,30.23,7.0,Calm,Calm,-,N/A,,Overcast,0,2012-11-05 07:54:00
2:14 AM,33.8,32.0,93,30.24,7.0,Calm,Calm,-,N/A,,Overcast,0,2012-11-05 08:14:00
2:35 AM,32.0,32.0,100,30.24,7.0,NW,3.5,-,N/A,,Overcast,310,2012-11-05 08:35:00
2:54 AM,32.0,32.0,100,30.24,5.0,NNW,4.6,-,N/A,,Overcast,330,2012-11-05 08:54:00
3:14 AM,32.0,32.0,100,30.24,5.0,NE,3.5,-,N/A,,Overcast,40,2012-11-05 09:14:00
3:35 AM,32.0,32.0,100,30.24,5.0,Calm,Calm,-,N/A,,Overcast,0,2012-11-05 09:35:00
3:54 AM,32.0,32.0,100,30.23,5.0,Calm,Calm,-,N/A,,Overcast,0,2012-11-05 09:54:00
4:14 AM,32.0,32.0,100,30.23,5.0,Calm,Calm,-,N/A,,Overcast,0,2012-11-05 10:14:00
4:35 AM,32.0,32.0,100,30.23,5.0,Calm,Calm,-,N/A,,Overcast,0,2012-11-05 10:35:00
4:54 AM,32.0,30.2,93,30.23,5.0,Calm,Calm,-,N/A,,Overcast,0,2012-11-05 10:54:00
5:15 AM,32.0,30.2,93,30.23,4.0,Calm,Calm,-,N/A,,Overcast,0,2012-11-05 11:15:00
5:35 AM,32.0,32.0,100,30.21,5.0,Calm,Calm,-,N/A,,Overcast,0,2012-11-05 11:35:00
6:15 AM,32.0,32.0,100,30.21,5.0,Calm,Calm,-,N/A,,Overcast,0,2012-11-05 12:15:00
6:35 AM,33.8,32.0,93,30.20,7.0,Calm,Calm,-,N/A,,Overcast,0,2012-11-05 12:35:00
6:54 AM,32.0,32.0,100,30.20,5.0,SE,4.6,-,N/A,,Overcast,140,2012-11-05 12:54:00
7:15 AM,33.8,32.0,93,30.19,10.0,SSE,4.6,-,N/A,,Overcast,150,2012-11-05 13:15:00
7:34 AM,33.8,32.0,93,30.19,10.0,SE,4.6,-,N/A,,Overcast,140,2012-11-05 13:34:00
7:54 AM,33.8,32.0,93,30.19,10.0,SSE,4.6,-,N/A,,Overcast,150,2012-11-05 13:54:00
8:15 AM,32.0,30.2,93,30.19,10.0,Calm,Calm,-,N/A,,Scattered Clouds,0,2012-11-05 14:15:00
8:34 AM,30.2,30.2,100,30.20,3.0,West,4.6,-,N/A,,Mostly Cloudy,280,2012-11-05 14:34:00
8:54 AM,32.0,32.0,100,30.19,3.0,Calm,Calm,-,N/A,,Scattered Clouds,0,2012-11-05 14:54:00
9:14 AM,33.8,32.0,93,30.19,5.0,Calm,Calm,-,N/A,,Clear,0,2012-11-05 15:14:00
9:34 AM,33.8,32.0,93,30.20,4.0,West,5.8,-,N/A,,Clear,280,2012-11-05 15:34:00
9:55 AM,30.2,30.2,100,30.19,0.2,West,3.5,-,N/A,Fog,Light Freezing Fog,270,2012-11-05 15:55:00
10:14 AM,33.8,32.0,93,30.18,0.2,Calm,Calm,-,N/A,Fog,Fog,0,2012-11-05 16:14:00
10:34 AM,33.8,33.8,100,30.18,2.0,Calm,Calm,-,N/A,,Mostly Cloudy,0,2012-11-05 16:34:00
10:55 AM,35.6,35.6,100,30.16,5.0,SW,3.5,-,N/A,,Scattered Clouds,220,2012-11-05 16:55:00
11:14 AM,37.4,33.8,87,30.15,10.0,SSW,6.9,-,N/A,,Clear,200,2012-11-05 17:14:00
11:34 AM,39.2,33.8,81,30.13,10.0,SSW,6.9,-,N/A,,Clear,200,2012-11-05 17:34:00
11:55 AM,39.2,35.6,87,30.11,10.0,South,8.1,-,N/A,,Clear,190,2012-11-05 17:55:00
12:14 PM,39.2,35.6,87,30.10,10.0,SSW,9.2,16.1,N/A,,Scattered Clouds,200,2012-11-05 18:14:00
12:35 PM,41.0,33.8,76,30.08,10.0,South,11.5,-,N/A,,Scattered Clouds,190,2012-11-05 18:35:00
12:55 PM,41.0,33.8,76,30.07,10.0,SSW,10.4,-,N/A,,Scattered Clouds,200,2012-11-05 18:55:00
1:14 PM,41.0,33.8,76,30.05,10.0,SSW,15.0,-,N/A,,Mostly Cloudy,200,2012-11-05 19:14:00
1:35 PM,42.8,35.6,76,30.04,10.0,SSW,15.0,18.4,N/A,,Scattered Clouds,200,2012-11-05 19:35:00
1:54 PM,42.8,33.8,70,30.04,10.0,SSW,15.0,18.4,N/A,,Scattered Clouds,200,2012-11-05 19:54:00
2:14 PM,42.8,35.6,76,30.03,10.0,SW,15.0,-,N/A,,Mostly Cloudy,220,2012-11-05 20:14:00
2:35 PM,41.0,35.6,81,30.02,10.0,SSW,12.7,-,N/A,,Overcast,210,2012-11-05 20:35:00
2:54 PM,41.0,35.6,81,30.01,10.0,SSW,11.5,-,N/A,,Overcast,200,2012-11-05 20:54:00
3:14 PM,41.0,35.6,81,30.00,10.0,SW,15.0,-,N/A,,Overcast,220,2012-11-05 21:14:00
3:35 PM,41.0,35.6,81,29.99,10.0,SW,15.0,20.7,N/A,,Overcast,220,2012-11-05 21:35:00
3:54 PM,41.0,35.6,81,29.98,10.0,SSW,15.0,-,N/A,,Overcast,210,2012-11-05 21:54:00
4:15 PM,39.2,35.6,87,29.97,10.0,SW,16.1,-,N/A,,Mostly Cloudy,220,2012-11-05 22:15:00
4:35 PM,39.2,35.6,87,29.96,10.0,SW,13.8,19.6,N/A,,Mostly Cloudy,220,2012-11-05 22:35:00
4:54 PM,39.2,35.6,87,29.95,7.0,SW,13.8,-,N/A,,Scattered Clouds,230,2012-11-05 22:54:00
5:15 PM,37.4,35.6,93,29.95,7.0,SW,13.8,-,N/A,,Clear,220,2012-11-05 23:15:00
5:34 PM,37.4,35.6,93,29.94,7.0,SW,16.1,20.7,N/A,,Clear,220,2012-11-05 23:34:00
5:54 PM,37.4,33.8,87,29.93,7.0,SW,17.3,-,N/A,,Scattered Clouds,220,2012-11-05 23:54:00
6:15 PM,37.4,33.8,87,29.91,7.0,SSW,13.8,19.6,N/A,,Scattered Clouds,200,2012-11-06 00:15:00
6:34 PM,37.4,33.8,87,29.89,10.0,South,18.4,-,N/A,,Clear,190,2012-11-06 00:34:00
6:54 PM,37.4,33.8,87,29.88,7.0,South,17.3,23.0,N/A,,Clear,190,2012-11-06 00:54:00
7:15 PM,37.4,33.8,87,29.87,10.0,South,17.3,-,N/A,,Scattered Clouds,190,2012-11-06 01:15:00
7:34 PM,37.4,33.8,87,29.85,7.0,South,17.3,-,N/A,,Mostly Cloudy,190,2012-11-06 01:34:00
7:54 PM,37.4,33.8,87,29.84,7.0,South,19.6,-,N/A,,Overcast,190,2012-11-06 01:54:00
8:15 PM,37.4,35.6,93,29.83,7.0,South,20.7,24.2,N/A,,Scattered Clouds,190,2012-11-06 02:15:00
8:34 PM,37.4,35.6,93,29.82,7.0,South,19.6,-,N/A,,Scattered Clouds,190,2012-11-06 02:34:00
8:54 PM,35.6,35.6,100,29.81,5.0,South,23.0,-,N/A,,Scattered Clouds,190,2012-11-06 02:54:00
9:15 PM,35.6,35.6,100,29.80,5.0,South,20.7,-,0.02,,Scattered Clouds,190,2012-11-06 03:15:00
9:34 PM,35.6,35.6,100,29.79,4.0,South,19.6,26.5,0.03,,Mostly Cloudy,190,2012-11-06 03:34:00
9:54 PM,35.6,35.6,100,29.76,3.0,South,23.0,27.6,0.01,,Overcast,190,2012-11-06 03:54:00
10:15 PM,35.6,35.6,100,29.76,2.0,South,21.9,27.6,0.02,,Overcast,190,2012-11-06 04:15:00
10:34 PM,35.6,35.6,100,29.74,2.5,SSW,20.7,25.3,0.05,,Overcast,200,2012-11-06 04:34:00
10:54 PM,35.6,35.6,100,29.73,3.0,SSW,16.1,27.6,N/A,,Overcast,200,2012-11-06 04:54:00
11:15 PM,35.6,35.6,100,29.73,1.8,SSW,20.7,29.9,0.01,,Overcast,210,2012-11-06 05:15:00
11:34 PM,35.6,35.6,100,29.72,3.0,SSW,20.7,25.3,0.02,,Overcast,200,2012-11-06 05:34:00
11:54 PM,35.6,35.6,100,29.71,3.0,SSW,19.6,25.3,N/A,,Overcast,210,2012-11-06 05:54:00